User: anonymous   Login
Location: Tel Aviv
(32.0670°N, 34.7670°E)
Time: 03:36:35
(UTC+03:00)
Language:

RS-15 - Orbit

View from above orbital plane
View from above orbital plane
View from above satellite
View from above satellite

Ground track
Ground track

The orbit data is extracted from the following two-line orbital elements,

1 23439U 94085A   24141.26526234 -.00000049  00000-0 -18283-3 0  9999
2 23439  64.8167  88.9214 0150701 149.0846 211.9056 11.27576895210449
Epoch (UTC): 20 May 2024 06:21:58
Eccentricity: 0.0150701
inclination: 64.8167°
perigee height: 1896 km
apogee height: 2149 km
right ascension of ascending node: 88.9214°
argument of perigee: 149.0846°
revolutions per day: 11.27576895
mean anomaly at epoch: 211.9056°
orbit number at epoch: 21044

The dashed part of the orbit path shows where the satellite is in the earth's shadow,  

DLR